Time,TemperatureF,DewpointF,PressureIn,WindDirection,WindDirectionDegrees,WindSpeedMPH,WindSpeedGustMPH,Humidity,HourlyPrecipIn,Conditions,Clouds,dailyrainin,SolarRadiationWatts/m^2,SoftwareType,DateUTC
2013-03-01 07:42:00,49.0,48.0,-100.00,WSW,246,0.0,2.0,99,-99.99,,,0.01,23.480000,,2013-03-01 15:42:00,
2013-03-01 07:52:00,49.0,48.0,-100.00,WSW,246,0.0,2.0,99,-99.99,,,0.01,23.480000,,2013-03-01 15:52:00,
2013-03-01 08:01:00,49.0,48.0,-100.00,WSW,246,0.0,2.0,99,-99.99,,,0.01,23.480000,,2013-03-01 16:01:00,
2013-03-01 08:11:00,49.0,48.0,-100.00,WSW,246,0.0,2.0,99,-99.99,,,0.01,23.480000,,2013-03-01 16:11:00,
2013-03-01 08:41:00,50.0,50.0,-100.00,WSW,245,0.0,2.0,99,-99.99,,,0.01,60.320000,,2013-03-01 16:41:00,
2013-03-01 08:52:00,50.0,50.0,-100.00,WSW,245,0.0,2.0,99,-99.99,,,0.01,60.320000,,2013-03-01 16:52:00,
2013-03-01 09:01:00,50.0,50.0,-100.00,WSW,245,0.0,2.0,99,-99.99,,,0.01,60.320000,,2013-03-01 17:01:00,
2013-03-01 09:11:00,50.0,50.0,-100.00,WSW,245,0.0,2.0,99,-99.99,,,0.01,60.320000,,2013-03-01 17:11:00,
2013-03-01 10:12:00,50.0,50.0,-100.00,SSW,196,3.0,7.0,99,-99.99,,,0.01,117.730003,,2013-03-01 18:12:00,
2013-03-01 10:31:00,52.0,52.0,-100.00,SSW,212,2.0,6.0,99,-99.99,,,0.00,168.750000,,2013-03-01 18:31:00,
2013-03-01 10:41:00,52.0,52.0,-100.00,SSW,212,2.0,6.0,99,-99.99,,,0.00,168.750000,,2013-03-01 18:41:00,
2013-03-01 10:52:00,52.0,52.0,-100.00,SSW,212,2.0,6.0,99,-99.99,,,0.00,168.750000,,2013-03-01 18:52:00,
2013-03-01 11:01:00,52.0,52.0,-100.00,SSW,212,2.0,6.0,99,-99.99,,,0.00,168.750000,,2013-03-01 19:01:00,
2013-03-01 11:11:00,52.0,52.0,-100.00,SSW,212,2.0,6.0,99,-99.99,,,0.00,168.750000,,2013-03-01 19:11:00,
2013-03-01 11:42:00,52.0,52.0,-100.00,SSW,195,4.0,8.0,98,-99.99,,,0.00,308.559998,,2013-03-01 19:42:00,
2013-03-01 11:52:00,52.0,52.0,-100.00,SSW,195,4.0,8.0,98,-99.99,,,0.00,308.559998,,2013-03-01 19:52:00,
2013-03-01 12:01:00,52.0,52.0,-100.00,SSW,195,4.0,8.0,98,-99.99,,,0.00,308.559998,,2013-03-01 20:01:00,
2013-03-01 12:11:00,52.0,52.0,-100.00,SSW,195,4.0,8.0,98,-99.99,,,0.00,308.559998,,2013-03-01 20:11:00,
2013-03-01 12:41:00,56.0,53.0,-100.00,South,176,3.0,7.0,89,-99.99,,,0.00,418.970001,,2013-03-01 20:41:00,
2013-03-01 12:52:00,56.0,53.0,-100.00,South,176,3.0,7.0,89,-99.99,,,0.00,418.970001,,2013-03-01 20:52:00,
2013-03-01 13:01:00,56.0,53.0,-100.00,South,176,3.0,7.0,89,-99.99,,,0.00,418.970001,,2013-03-01 21:01:00,
2013-03-01 13:11:00,56.0,53.0,-100.00,South,176,3.0,7.0,89,-99.99,,,0.00,418.970001,,2013-03-01 21:11:00,
2013-03-01 13:31:00,55.0,51.0,-100.00,West,273,4.0,11.0,85,-99.99,,,0.00,310.190002,,2013-03-01 21:31:00,
2013-03-01 13:41:00,55.0,51.0,-100.00,West,273,4.0,11.0,85,-99.99,,,0.00,310.190002,,2013-03-01 21:41:00,
2013-03-01 13:52:00,55.0,51.0,-100.00,West,273,4.0,11.0,85,-99.99,,,0.00,310.190002,,2013-03-01 21:52:00,
2013-03-01 14:01:00,55.0,51.0,-100.00,West,273,4.0,11.0,85,-99.99,,,0.00,310.190002,,2013-03-01 22:01:00,
2013-03-01 14:11:00,55.0,51.0,-100.00,West,273,4.0,11.0,85,-99.99,,,0.00,310.190002,,2013-03-01 22:11:00,
2013-03-01 14:31:00,55.0,51.0,-100.00,WSW,254,3.0,8.0,85,-99.99,,,0.00,619.450012,,2013-03-01 22:31:00,
2013-03-01 14:41:00,55.0,51.0,-100.00,WSW,254,3.0,8.0,85,-99.99,,,0.00,619.450012,,2013-03-01 22:41:00,
2013-03-01 14:52:00,55.0,51.0,-100.00,WSW,254,3.0,8.0,85,-99.99,,,0.00,619.450012,,2013-03-01 22:52:00,
2013-03-01 15:01:00,55.0,51.0,-100.00,WSW,254,3.0,8.0,85,-99.99,,,0.00,619.450012,,2013-03-01 23:01:00,
2013-03-01 15:11:00,55.0,51.0,-100.00,WSW,254,3.0,8.0,85,-99.99,,,0.00,619.450012,,2013-03-01 23:11:00,
2013-03-01 15:31:00,55.0,51.0,-100.00,West,263,3.0,6.0,86,-99.99,,,0.00,493.010010,,2013-03-01 23:31:00,
2013-03-01 15:41:00,55.0,51.0,-100.00,West,263,3.0,6.0,86,-99.99,,,0.00,493.010010,,2013-03-01 23:41:00,
2013-03-01 15:52:00,55.0,51.0,-100.00,West,263,3.0,6.0,86,-99.99,,,0.00,493.010010,,2013-03-01 23:52:00,
2013-03-01 16:01:00,55.0,51.0,-100.00,West,263,3.0,6.0,86,-99.99,,,0.00,493.010010,,2013-03-02 00:01:00,
2013-03-01 16:11:00,55.0,51.0,-100.00,West,263,3.0,6.0,86,-99.99,,,0.00,493.010010,,2013-03-02 00:11:00,
2013-03-01 16:42:00,54.0,50.0,-100.00,West,279,3.0,6.0,87,-99.99,,,-99.99,244.529999,,2013-03-02 00:42:00,
2013-03-01 16:52:00,54.0,50.0,-100.00,West,279,3.0,6.0,87,-99.99,,,-99.99,244.529999,,2013-03-02 00:52:00,
2013-03-01 17:01:00,54.0,50.0,-100.00,West,279,3.0,6.0,87,-99.99,,,-99.99,244.529999,,2013-03-02 01:01:00,
2013-03-01 17:11:00,54.0,50.0,-100.00,West,279,3.0,6.0,87,-99.99,,,-99.99,244.529999,,2013-03-02 01:11:00,
2013-03-01 17:41:00,49.0,48.0,-100.00,West,275,2.0,4.0,95,-99.99,,,-99.99,61.020000,,2013-03-02 01:41:00,
2013-03-01 17:52:00,49.0,48.0,-100.00,West,275,2.0,4.0,95,-99.99,,,-99.99,61.020000,,2013-03-02 01:52:00,
2013-03-01 18:01:00,49.0,48.0,-100.00,West,275,2.0,4.0,95,-99.99,,,-99.99,61.020000,,2013-03-02 02:01:00,
2013-03-01 18:11:00,49.0,48.0,-100.00,West,275,2.0,4.0,95,-99.99,,,-99.99,61.020000,,2013-03-02 02:11:00,
2013-03-01 18:41:00,48.0,47.0,-100.00,WNW,299,2.0,4.0,97,-99.99,,,-99.99,2.090000,,2013-03-02 02:41:00,
2013-03-01 18:52:00,48.0,47.0,-100.00,WNW,299,2.0,4.0,97,-99.99,,,-99.99,2.090000,,2013-03-02 02:52:00,
2013-03-01 19:01:00,48.0,47.0,-100.00,WNW,299,2.0,4.0,97,-99.99,,,-99.99,2.090000,,2013-03-02 03:01:00,
2013-03-01 19:11:00,48.0,47.0,-100.00,WNW,299,2.0,4.0,97,-99.99,,,-99.99,2.090000,,2013-03-02 03:11:00,
2013-03-01 19:32:00,47.0,47.0,-100.00,NW,306,0.0,2.0,98,-99.99,,,-99.99,0.000000,,2013-03-02 03:32:00,
2013-03-01 19:41:00,47.0,47.0,-100.00,NW,306,0.0,2.0,98,-99.99,,,-99.99,0.000000,,2013-03-02 03:41:00,
2013-03-01 19:52:00,47.0,47.0,-100.00,NW,306,0.0,2.0,98,-99.99,,,-99.99,0.000000,,2013-03-02 03:52:00,
2013-03-01 20:01:00,47.0,47.0,-100.00,NW,306,0.0,2.0,98,-99.99,,,-99.99,0.000000,,2013-03-02 04:01:00,
2013-03-01 20:11:00,47.0,47.0,-100.00,NW,306,0.0,2.0,98,-99.99,,,-99.99,0.000000,,2013-03-02 04:11:00,
2013-03-01 20:32:00,47.0,47.0,-100.00,NNW,334,0.0,1.0,98,-99.99,,,-99.99,0.000000,,2013-03-02 04:32:00,
2013-03-01 20:41:00,47.0,47.0,-100.00,NNW,334,0.0,1.0,98,-99.99,,,-99.99,0.000000,,2013-03-02 04:41:00,
2013-03-01 20:52:00,47.0,47.0,-100.00,NNW,334,0.0,1.0,98,-99.99,,,-99.99,0.000000,,2013-03-02 04:52:00,
2013-03-01 21:01:00,47.0,47.0,-100.00,NNW,334,0.0,1.0,98,-99.99,,,-99.99,0.000000,,2013-03-02 05:01:00,
2013-03-01 21:12:00,47.0,47.0,-100.00,NNW,334,0.0,1.0,98,-99.99,,,-99.99,0.000000,,2013-03-02 05:12:00,
2013-03-01 21:32:00,47.0,47.0,-100.00,NNE,31,0.0,1.0,98,-99.99,,,-99.99,0.000000,,2013-03-02 05:32:00,
2013-03-01 21:41:00,47.0,47.0,-100.00,NNE,31,0.0,1.0,98,-99.99,,,-99.99,0.000000,,2013-03-02 05:41:00,
2013-03-01 21:52:00,47.0,47.0,-100.00,NNE,31,0.0,1.0,98,-99.99,,,-99.99,0.000000,,2013-03-02 05:52:00,
2013-03-01 22:01:00,47.0,47.0,-100.00,NNE,31,0.0,1.0,98,-99.99,,,-99.99,0.000000,,2013-03-02 06:01:00,
2013-03-01 22:11:00,47.0,47.0,-100.00,NNE,31,0.0,1.0,98,-99.99,,,-99.99,0.000000,,2013-03-02 06:11:00,
2013-03-01 22:41:00,48.0,47.0,-100.00,NNW,329,2.0,3.0,99,-99.99,,,-99.99,0.000000,,2013-03-02 06:41:00,
2013-03-01 22:52:00,48.0,47.0,-100.00,NNW,329,2.0,3.0,99,-99.99,,,-99.99,0.000000,,2013-03-02 06:52:00,
2013-03-01 23:01:00,48.0,47.0,-100.00,NNW,329,2.0,3.0,99,-99.99,,,-99.99,0.000000,,2013-03-02 07:01:00,
2013-03-01 23:11:00,48.0,47.0,-100.00,NNW,329,2.0,3.0,99,-99.99,,,-99.99,0.000000,,2013-03-02 07:11:00,
2013-03-01 23:32:00,48.0,48.0,-100.00,NW,320,1.0,2.0,99,-99.99,,,-99.99,0.000000,,2013-03-02 07:32:00,
2013-03-01 23:42:00,48.0,48.0,-100.00,NW,320,1.0,2.0,99,-99.99,,,-99.99,0.000000,,2013-03-02 07:42:00,
2013-03-01 23:52:00,48.0,48.0,-100.00,NW,320,1.0,2.0,99,-99.99,,,-99.99,0.000000,,2013-03-02 07:52:00,